Wind_Speed
19 21 22 22 21 19 19 18 20 21 24 21 21 22 23 24 23 23 23 25 26 25 24 26 27 27 28 28 29 28 28 28 27 28 30 28 26 26 25 27 27 26 24
26 23 24 24 23 21 20 19 20 22 22 20 22 23 23 23 23 22 24 25 24 23 24 24 25 26 26 27 27 29 28 27 26 28 29 27 28 25 24 25 24 24 24
26 24 25 24 25 24 23 21 20 20 21 21 21 20 22 23 23 23 23 24 23 23 24 23 24 25 26 27 28 27 25 26 26 27 29 27 25 23 24 23 23 23 22
26 25 26 25 25 26 25 23 22 21 22 22 22 21 23 24 24 23 23 24 23 23 23 23 24 24 25 25 24 23 22 23 26 24 25 25 23 22 22 21 22 21 21
27 25 26 26 25 26 24 23 24 22 22 22 22 23 24 23 23 23 24 23 24 24 23 23 24 26 25 23 23 22 22 24 24 25 24 24 23 20 21 21 21 20 20
27 25 27 26 25 24 24 24 25 24 24 24 24 22 23 22 23 24 25 25 23 23 22 21 18 24 23 23 21 22 22 22 24 23 23 21 22 20 19 20 20 19 20
27 26 27 26 25 24 24 25 25 26 26 25 26 23 23 22 22 24 26 25 24 22 20 22 23 23 25 22 20 22 22 23 22 22 23 21 20 18 18 19 19 19 19
28 26 27 27 25 25 25 26 26 26 25 26 23 22 23 22 22 23 25 26 24 20 21 23 23 21 22 21 22 21 22 21 21 22 20 20 18 17 17 18 18 18 18
28 27 27 26 25 25 26 25 25 25 24 23 23 23 23 22 22 22 25 24 23 19 20 22 22 23 21 21 20 19 19 20 20 19 19 19 17 17 16 16 17 17 17
28 27 28 28 27 25 25 24 25 24 25 25 23 23 23 23 23 25 22 23 22 20 21 22 22 20 19 17 18 17 19 20 19 18 16 16 15 15 15 16 15 15 16
28 28 28 29 28 27 26 25 25 26 26 26 25 25 25 24 24 23 22 24 24 21 21 22 21 20 16 16 18 17 19 18 17 15 15 14 14 13 13 14 14 14 14
27 29 29 29 29 29 28 28 28 26 26 27 25 24 24 24 23 22 22 25 25 21 22 21 21 19 16 18 18 15 16 17 17 15 14 12 12 11 12 12 13 12 13
31 30 30 30 31 31 31 29 27 27 27 26 24 24 24 23 23 22 21 25 27 25 24 18 16 15 16 17 16 15 16 16 16 13 12 11 10 10 10 10 10 11 10
31 31 30 30 31 31 30 28 28 28 28 27 25 23 23 23 23 21 22 25 26 25 20 15 13 19 17 16 14 14 14 15 15 13 10 10 9 9 9 8 8 9 9
32 32 32 32 32 32 30 29 29 29 28 26 24 22 22 22 22 22 23 24 25 23 18 16 15 16 16 15 13 11 13 13 12 13 11 8 7 7 7 6 5 6 6
30 32 33 32 31 32 32 31 30 28 26 25 23 22 21 20 22 24 24 23 23 18 14 14 14 14 16 15 13 11 10 11 11 10 11 10 8 7 6 5 3 3 3
32 35 34 32 31 32 33 32 30 26 26 23 21 23 22 22 24 25 22 20 19 17 15 13 14 14 15 14 13 11 9 9 10 9 9 8 8 6 6 5 3 2 2
31 35 34 32 32 33 34 32 28 24 26 22 21 24 23 23 23 23 20 18 16 15 16 15 14 15 15 16 14 11 9 8 8 9 9 9 8 8 8 6 6 6 5
31 34 35 33 35 34 33 29 25 26 24 23 23 24 23 22 22 20 19 18 17 17 16 16 15 15 15 14 13 11 10 9 9 9 10 11 10 11 11 12 11 10 10
35 33 37 35 36 33 32 29 26 24 24 24 23 23 22 22 20 20 20 19 19 19 18 18 16 15 14 13 11 10 10 11 12 13 13 13 13 13 13 13 13 13 14
37 32 35 35 38 36 35 31 30 29 26 25 24 23 23 23 22 22 21 20 20 20 20 19 17 16 14 13 11 8 11 13 14 16 16 17 17 17 17 17 17 17 17
32 33 33 34 39 35 36 33 29 29 27 26 25 24 24 24 23 23 23 22 21 21 21 20 19 17 13 15 6 3 2 5 17 21 20 20 20 19 20 20 20 20 20
29 32 33 33 36 33 34 32 28 28 27 26 28 27 26 25 24 22 21 21 22 23 23 22 20 18 17 17 12 4 1 3 5 4 14 22 22 21 21 22 22 23 23
29 30 33 36 31 35 34 34 34 30 24 25 31 30 27 26 25 24 22 21 20 23 22 21 21 19 18 16 17 16 10 3 1 4 3 6 12 19 21 21 23 23 23
28 31 33 34 33 37 37 34 33 29 29 28 30 28 27 26 25 24 25 23 21 23 22 22 22 22 21 19 18 11 16 17 12 6 4 5 8 11 17 20 21 24 24
27 30 32 34 33 35 38 38 36 31 31 28 29 29 29 28 26 25 25 25 23 23 23 22 22 22 23 21 19 20 18 7 9 13 8 12 11 19 18 17 21 22 21
Wind_Direction
174 162 159 155 148 146 141 136 132 130 127 122 121 122 119 116 111 107 103 100 97 98 100 97 99 98 96 93 92 94 93 94 92 94 91 89 87 88 87 86 89 86 84
161 160 159 155 150 148 146 140 139 137 133 128 126 126 124 118 113 108 108 104 102 105 104 101 100 98 98 96 94 95 94 96 98 95 93 93 87 86 86 86 86 86 84
157 157 158 156 152 149 150 144 144 142 139 130 128 128 123 117 112 110 108 110 112 109 106 107 108 106 101 101 101 96 96 98 100 96 93 91 91 88 86 86 84 83 83
155 161 160 158 154 153 151 149 150 147 142 135 131 126 121 116 116 115 113 116 114 113 111 111 110 107 107 107 104 103 103 105 101 100 101 95 92 93 91 87 86 85 85
156 163 161 159 157 155 152 149 149 146 142 140 133 128 122 118 119 118 120 120 121 121 110 113 117 117 115 111 107 108 113 113 108 106 102 101 98 94 93 90 90 87 86
158 165 162 161 159 156 155 152 149 147 142 138 132 127 122 123 123 125 125 128 128 126 115 119 126 120 116 114 109 110 112 111 109 104 104 101 98 97 95 92 90 89 85
159 164 161 163 161 159 154 152 151 148 145 138 131 130 126 124 126 128 134 133 136 132 119 122 119 120 121 119 115 118 115 111 108 105 102 101 97 97 93 92 89 87 84
158 160 160 163 160 158 154 151 149 147 144 139 135 133 129 129 131 129 131 133 136 128 122 124 123 123 123 115 117 119 118 114 112 107 104 101 100 96 92 90 90 90 87
155 158 156 160 159 156 156 151 149 147 145 141 138 135 134 133 132 132 134 136 140 129 128 133 129 129 128 127 125 124 123 119 112 108 106 101 99 98 97 94 91 89 88
154 156 157 156 156 158 157 154 153 150 145 142 141 138 137 135 136 136 135 142 139 135 133 134 135 136 131 129 129 126 126 120 111 105 102 104 101 102 100 99 96 94 92
157 158 159 158 157 155 153 154 151 150 148 145 143 141 142 142 143 143 142 151 143 140 140 141 137 133 135 132 136 134 136 127 118 116 113 111 106 104 103 100 98 98 96
158 161 164 162 159 158 155 153 151 150 151 152 151 149 146 145 146 149 149 156 147 141 142 142 138 140 142 140 139 140 139 131 129 118 116 115 111 105 102 101 102 99 97
163 164 167 165 163 160 158 157 158 158 157 153 153 152 150 150 149 154 155 157 150 143 139 143 150 153 151 146 142 141 143 141 133 122 125 122 120 114 109 104 104 101 97
162 168 169 169 166 164 163 163 161 158 156 157 158 158 156 153 152 154 157 159 156 149 139 139 151 165 156 152 149 144 149 149 145 133 133 132 128 125 118 113 108 106 106
162 170 172 171 169 166 166 165 162 161 162 160 162 163 161 156 154 154 156 160 161 156 146 139 140 155 161 158 156 150 155 159 157 148 147 150 146 134 127 119 114 112 108
165 170 172 173 173 169 167 166 165 164 164 164 166 168 166 162 157 155 154 158 162 162 155 151 150 158 165 164 162 159 155 166 169 166 165 168 172 158 140 138 137 119 111
169 172 174 175 175 173 170 168 165 167 170 171 171 173 170 166 160 158 159 163 169 172 169 164 152 156 167 172 169 169 167 171 181 190 193 193 193 198 188 171 184 190 205
167 174 178 181 180 178 174 173 174 177 174 177 176 173 173 170 168 169 170 174 174 177 177 175 168 161 166 173 180 184 185 190 195 207 217 221 222 229 240 247 236 229 232
172 176 180 181 179 179 177 177 181 178 180 178 175 176 177 181 182 186 186 185 183 185 181 181 173 179 168 173 186 198 207 216 221 228 233 237 240 247 249 255 263 261 262
178 182 182 182 181 182 182 183 183 183 182 184 185 187 189 192 191 194 196 196 192 191 191 189 189 185 187 187 190 207 222 231 239 243 246 248 251 254 255 260 264 266 267
181 185 182 185 186 185 187 184 183 186 186 190 192 192 192 191 189 188 191 193 193 196 195 195 195 200 198 196 192 222 247 250 247 246 248 252 255 258 258 264 268 270 270
179 184 186 189 186 191 189 185 189 188 191 194 196 197 200 199 201 201 203 202 202 202 202 207 207 201 201 199 184 181 320 275 249 248 249 252 257 260 261 266 271 273 272
179 184 189 186 189 191 189 190 194 191 192 196 201 200 201 203 203 203 205 209 212 213 213 212 211 213 206 204 206 184 86 252 317 265 247 251 257 262 267 269 270 273 273
181 183 189 190 187 189 193 194 191 186 187 197 200 202 201 204 208 210 212 212 217 215 216 218 216 219 221 215 219 232 244 253 183 325 307 275 262 261 267 270 274 277 276
179 179 182 191 193 190 192 197 195 193 196 198 205 205 203 205 211 215 214 216 220 219 220 221 221 223 226 229 223 225 239 247 251 232 286 292 289 286 289 285 283 280 278
192 190 189 190 192 193 196 200 202 203 201 200 207 208 207 210 214 216 215 219 224 224 224 226 229 230 231 234 240 240 237 221 227 228 239 267 269 295 295 291 289 287 286
Height
798 800 802 804 807 810 812 814 815 817 817 817 818 819 820 822 824 824 825 825 826 827 828 829 830 832 832 832 834 836 836 837 839 838 838 839 841 842 843 842 842 841 843
795 800 802 804 806 810 813 816 817 817 820 819 820 822 823 824 826 828 828 829 830 831 833 834 835 835 836 837 839 839 840 841 842 842 842 844 844 845 848 845 847 847 846
796 800 803 805 805 808 813 816 818 820 821 821 823 825 826 827 829 831 833 833 835 836 836 837 838 839 840 841 842 843 845 844 845 846 846 846 848 850 850 851 851 851 851
796 800 802 806 808 808 811 815 819 821 822 823 825 828 828 830 832 834 836 837 838 839 841 841 842 843 844 845 846 847 849 849 849 850 850 851 853 854 854 856 855 855 855
796 800 803 807 809 810 812 815 818 822 824 825 827 829 831 833 834 836 837 840 842 843 844 845 846 846 848 850 850 851 852 852 853 854 855 854 855 858 858 858 859 858 858
797 801 804 807 811 812 814 817 819 822 826 827 829 831 834 835 837 838 839 842 844 845 846 849 850 851 852 854 854 855 856 857 858 858 858 859 859 861 862 861 862 861 860
797 802 804 808 811 814 816 818 821 823 826 829 831 834 836 838 839 840 842 844 847 848 850 851 852 854 856 858 858 858 860 860 862 862 862 862 863 865 865 865 863 864 864
798 803 806 809 813 815 818 820 823 825 829 831 833 836 838 840 842 844 845 847 849 852 852 853 854 857 859 859 860 862 863 864 865 865 866 866 866 867 867 867 867 866 867
799 804 807 811 815 818 820 822 825 827 830 833 836 837 840 842 844 846 848 849 851 855 855 856 857 859 860 861 862 865 866 867 868 868 869 869 870 870 870 870 869 870 868
800 805 808 812 815 819 822 824 827 829 831 835 838 839 842 844 846 848 851 852 853 856 858 859 860 861 862 864 865 867 868 869 871 872 872 872 873 873 872 871 872 872 871
803 806 810 812 816 819 824 826 829 831 834 836 839 840 842 845 848 850 851 854 856 858 860 861 862 864 865 866 867 869 870 871 873 874 875 875 875 876 875 874 873 873 873
803 806 810 814 816 820 823 826 829 832 835 837 839 842 844 846 849 852 853 854 857 860 862 863 865 866 867 869 870 871 872 874 876 876 876 877 878 878 877 876 875 876 875
802 807 811 814 817 819 824 826 830 832 836 839 842 844 845 847 849 853 855 857 858 860 863 866 867 868 870 871 872 873 874 876 877 878 878 879 879 879 878 878 877 877 877
801 807 811 815 818 820 825 827 830 833 836 840 843 846 847 848 849 853 856 859 860 862 864 867 867 869 871 873 874 875 877 877 878 879 880 880 881 880 879 880 879 879 879
799 806 810 815 819 820 824 828 832 834 837 840 843 846 849 850 850 853 857 861 863 864 865 867 869 871 872 874 876 876 877 878 879 879 880 881 882 882 881 881 882 881 880
800 806 810 815 819 821 824 828 832 835 838 841 844 846 849 852 852 854 857 861 864 866 867 868 870 872 874 875 876 878 878 878 879 880 881 881 882 882 882 882 883 882 881
798 804 810 814 819 822 824 828 832 835 839 841 844 847 850 852 854 856 859 862 865 866 868 870 871 873 875 876 877 879 879 879 879 880 881 881 882 882 882 881 881 881 881
798 804 810 814 818 823 825 829 832 835 838 842 844 847 851 853 855 858 860 863 865 867 868 870 871 873 874 876 878 879 879 880 879 880 881 881 881 881 881 881 881 880 880
798 804 807 812 816 822 825 830 832 836 838 841 845 847 850 854 855 858 860 863 865 868 869 870 872 873 874 875 878 879 879 880 880 880 880 880 880 880 880 880 880 880 880
798 803 807 810 815 820 825 829 833 836 839 841 844 846 849 853 854 857 860 863 864 867 869 871 872 873 874 875 876 878 879 878 878 878 879 879 879 878 878 879 878 878 878
796 802 806 809 812 817 820 825 830 833 836 841 844 845 848 851 853 855 859 862 864 865 868 870 872 872 873 874 876 876 876 876 875 876 876 877 877 877 876 876 876 876 876
793 799 804 807 811 814 818 822 827 831 835 839 843 845 847 850 853 854 857 860 862 865 867 869 869 871 872 873 874 876 876 874 871 871 873 874 875 875 874 874 874 874 873
790 795 800 805 809 812 816 820 826 831 836 837 841 843 845 848 851 853 855 858 860 862 864 866 867 869 870 872 873 874 879 878 873 868 868 870 871 872 872 872 871 870 870
786 792 797 802 807 810 814 819 822 826 829 831 836 840 843 846 850 852 854 856 858 860 862 864 866 868 869 870 873 872 874 875 876 874 867 866 867 868 868 868 867 867 866
783 788 793 799 804 807 809 814 820 823 826 830 836 840 842 844 848 850 851 854 856 858 860 862 864 865 867 868 869 869 871 873 874 875 873 866 865 865 865 864 863 862 861
780 784 789 794 800 804 809 812 816 819 823 827 833 836 839 841 844 847 848 850 854 856 857 859 862 863 864 865 867 866 867 869 868 870 871 866 863 860 860 859 859 858 856